Information on these data can be found in provided Readme document
Contact Info: Zachary Fasnacht (zachary.fasnacht@ssaihq.com); Nickolay Krotkov (nickolay.a.krotkov@nasa.gov); Lok Lamsal (lok.lamsal@nasa.gov)

FillValue: -999.
ScaleFactor: 1e15
Units: molecules/cm^2

Date(yyyy-mm-dd),City,Country,LonCenter,LatCenter,BoundingCoordinates,Median,Q1,Q3,Mean,Baseline_Median,Baseline_Q1,Baseline_Q3,Baseline_Mean,NumGoodSamples,NumTotalSamples
2015-01-01,Madrid,Spain,-3.7001,40.4333,[-4.2001 39.9333 -3.2001 40.9333],4.344,2.136,6.886,4.832,3.268,1.698,5.074,3.731,207.0,557.0
2015-01-02,Madrid,Spain,-3.7001,40.4333,[-4.2001 39.9333 -3.2001 40.9333],4.823,2.434,7.704,5.28,3.602,1.917,5.377,3.983,216.0,562.0
2015-01-03,Madrid,Spain,-3.7001,40.4333,[-4.2001 39.9333 -3.2001 40.9333],4.678,2.098,6.925,4.931,3.844,1.908,5.469,4.093,204.0,568.0
2015-01-04,Madrid,Spain,-3.7001,40.4333,[-4.2001 39.9333 -3.2001 40.9333],4.678,2.233,6.925,4.929,3.832,1.97,5.525,4.096,229.0,568.0
2015-01-05,Madrid,Spain,-3.7001,40.4333,[-4.2001 39.9333 -3.2001 40.9333],4.678,2.233,6.925,4.935,3.847,1.96,5.515,4.166,228.0,565.0
2015-01-06,Madrid,Spain,-3.7001,40.4333,[-4.2001 39.9333 -3.2001 40.9333],4.678,2.421,7.285,5.104,3.947,2.111,5.792,4.258,253.0,560.0
2015-01-07,Madrid,Spain,-3.7001,40.4333,[-4.2001 39.9333 -3.2001 40.9333],4.451,2.349,7.011,5.051,3.9,2.103,5.722,4.281,227.0,569.0
2015-01-08,Madrid,Spain,-3.7001,40.4333,[-4.2001 39.9333 -3.2001 40.9333],4.451,2.349,7.011,5.051,3.867,2.074,5.739,4.271,228.0,563.0
2015-01-09,Madrid,Spain,-3.7001,40.4333,[-4.2001 39.9333 -3.2001 40.9333],4.841,2.71,7.608,5.473,4.019,2.121,6.128,4.455,202.0,567.0
2015-01-10,Madrid,Spain,-3.7001,40.4333,[-4.2001 39.9333 -3.2001 40.9333],4.841,2.719,7.608,5.475,4.187,2.132,6.253,4.565,173.0,530.0
2015-01-11,Madrid,Spain,-3.7001,40.4333,[-4.2001 39.9333 -3.2001 40.9333],4.885,2.725,7.608,5.507,4.158,2.27,6.236,4.571,170.0,533.0
2015-01-12,Madrid,Spain,-3.7001,40.4333,[-4.2001 39.9333 -3.2001 40.9333],4.885,2.725,7.67,5.623,4.11,2.197,6.264,4.486,150.0,539.0
2015-01-13,Madrid,Spain,-3.7001,40.4333,[-4.2001 39.9333 -3.2001 40.9333],4.885,2.725,7.704,5.723,4.122,2.247,6.413,4.612,160.0,530.0
2015-01-14,Madrid,Spain,-3.7001,40.4333,[-4.2001 39.9333 -3.2001 40.9333],3.773,2.31,5.964,4.872,3.869,2.141,5.695,4.34,130.0,530.0
2015-01-15,Madrid,Spain,-3.7001,40.4333,[-4.2001 39.9333 -3.2001 40.9333],3.773,2.421,5.686,4.689,3.886,2.244,5.653,4.339,146.0,529.0
2015-01-16,Madrid,Spain,-3.7001,40.4333,[-4.2001 39.9333 -3.2001 40.9333],3.784,2.462,5.686,4.934,3.924,2.277,6.084,4.483,112.0,535.0
2015-01-17,Madrid,Spain,-3.7001,40.4333,[-4.2001 39.9333 -3.2001 40.9333],3.766,2.239,5.475,4.385,3.941,2.239,6.06,4.361,128.0,533.0
2015-01-18,Madrid,Spain,-3.7001,40.4333,[-4.2001 39.9333 -3.2001 40.9333],3.784,2.462,5.802,4.684,3.802,2.243,6.131,4.477,136.0,534.0
2015-01-19,Madrid,Spain,-3.7001,40.4333,[-4.2001 39.9333 -3.2001 40.9333],3.773,2.175,5.618,4.467,3.844,2.101,6.208,4.46,117.0,539.0
2015-01-20,Madrid,Spain,-3.7001,40.4333,[-4.2001 39.9333 -3.2001 40.9333],3.773,2.175,5.686,4.597,3.877,2.183,6.252,4.506,140.0,537.0
2015-01-21,Madrid,Spain,-3.7001,40.4333,[-4.2001 39.9333 -3.2001 40.9333],3.068,2.04,5.29,4.078,3.61,1.968,6.074,4.344,115.0,535.0
2015-01-22,Madrid,Spain,-3.7001,40.4333,[-4.2001 39.9333 -3.2001 40.9333],3.005,2.005,4.865,4.024,3.574,2.135,6.174,4.346,118.0,530.0
2015-01-23,Madrid,Spain,-3.7001,40.4333,[-4.2001 39.9333 -3.2001 40.9333],3.005,2.005,4.865,4.024,3.869,2.236,6.376,4.548,117.0,536.0
2015-01-24,Madrid,Spain,-3.7001,40.4333,[-4.2001 39.9333 -3.2001 40.9333],2.933,1.86,4.839,3.928,3.762,2.142,6.201,4.445,122.0,528.0
2015-01-25,Madrid,Spain,-3.7001,40.4333,[-4.2001 39.9333 -3.2001 40.9333],2.933,1.86,4.839,3.928,3.749,2.187,5.787,4.354,122.0,571.0
2015-01-26,Madrid,Spain,-3.7001,40.4333,[-4.2001 39.9333 -3.2001 40.9333],2.933,1.86,4.839,3.928,3.694,2.157,6.069,4.364,122.0,569.0
2015-01-27,Madrid,Spain,-3.7001,40.4333,[-4.2001 39.9333 -3.2001 40.9333],2.933,1.86,4.839,3.91,3.588,2.116,5.721,4.177,120.0,571.0
2015-01-28,Madrid,Spain,-3.7001,40.4333,[-4.2001 39.9333 -3.2001 40.9333],2.84,1.86,4.839,3.655,3.608,2.159,5.723,4.168,110.0,577.0
2015-01-29,Madrid,Spain,-3.7001,40.4333,[-4.2001 39.9333 -3.2001 40.9333],2.757,1.748,4.839,3.591,3.527,1.941,5.82,4.21,126.0,568.0
2015-01-30,Madrid,Spain,-3.7001,40.4333,[-4.2001 39.9333 -3.2001 40.9333],2.713,1.52,4.839,3.58,3.543,1.915,5.844,4.246,110.0,563.0
2015-01-31,Madrid,Spain,-3.7001,40.4333,[-4.2001 39.9333 -3.2001 40.9333],2.713,1.52,4.839,3.573,3.42,1.881,5.497,4.106,111.0,565.0
2015-02-01,Madrid,Spain,-3.7001,40.4333,[-4.2001 39.9333 -3.2001 40.9333],2.326,1.488,4.622,3.588,3.605,1.947,5.798,4.274,75.0,570.0
2015-02-02,Madrid,Spain,-3.7001,40.4333,[-4.2001 39.9333 -3.2001 40.9333],2.198,1.488,4.622,3.254,3.514,2.024,5.372,4.009,87.0,569.0
2015-02-03,Madrid,Spain,-3.7001,40.4333,[-4.2001 39.9333 -3.2001 40.9333],2.198,1.33,4.622,3.307,3.516,1.996,5.294,4.034,83.0,571.0
2015-02-04,Madrid,Spain,-3.7001,40.4333,[-4.2001 39.9333 -3.2001 40.9333],1.954,1.241,4.448,2.76,3.449,1.977,5.227,3.869,60.0,575.0
2015-02-05,Madrid,Spain,-3.7001,40.4333,[-4.2001 39.9333 -3.2001 40.9333],2.079,1.278,4.684,2.957,3.501,1.97,5.221,3.918,74.0,575.0
2015-02-06,Madrid,Spain,-3.7001,40.4333,[-4.2001 39.9333 -3.2001 40.9333],2.079,1.33,4.684,2.989,3.463,1.917,5.067,3.862,71.0,572.0
2015-02-07,Madrid,Spain,-3.7001,40.4333,[-4.2001 39.9333 -3.2001 40.9333],2.079,1.33,4.684,2.989,3.185,1.775,4.732,3.618,71.0,566.0
2015-02-08,Madrid,Spain,-3.7001,40.4333,[-4.2001 39.9333 -3.2001 40.9333],2.152,1.33,4.684,3.076,3.106,1.753,4.729,3.634,66.0,575.0
2015-02-09,Madrid,Spain,-3.7001,40.4333,[-4.2001 39.9333 -3.2001 40.9333],2.198,1.379,4.684,3.043,2.848,1.747,4.72,3.564,69.0,567.0
2015-02-10,Madrid,Spain,-3.7001,40.4333,[-4.2001 39.9333 -3.2001 40.9333],2.198,1.379,4.684,3.043,2.944,1.799,4.752,3.584,69.0,573.0
2015-02-11,Madrid,Spain,-3.7001,40.4333,[-4.2001 39.9333 -3.2001 40.9333],2.269,1.379,4.684,3.097,2.876,1.663,4.755,3.558,67.0,535.0
2015-02-12,Madrid,Spain,-3.7001,40.4333,[-4.2001 39.9333 -3.2001 40.9333],2.78,1.577,5.215,3.745,2.957,1.809,4.709,3.536,95.0,536.0
2015-02-13,Madrid,Spain,-3.7001,40.4333,[-4.2001 39.9333 -3.2001 40.9333],2.954,1.594,5.379,3.87,3.182,2.003,4.919,3.738,82.0,541.0
2015-02-14,Madrid,Spain,-3.7001,40.4333,[-4.2001 39.9333 -3.2001 40.9333],2.954,1.577,4.79,3.689,3.124,1.912,4.647,3.602,105.0,533.0
2015-02-15,Madrid,Spain,-3.7001,40.4333,[-4.2001 39.9333 -3.2001 40.9333],2.954,1.577,4.79,3.697,3.243,1.983,4.833,3.731,104.0,523.0
2015-02-16,Madrid,Spain,-3.7001,40.4333,[-4.2001 39.9333 -3.2001 40.9333],3.329,1.577,4.79,3.686,3.183,1.956,4.805,3.666,108.0,523.0
2015-02-17,Madrid,Spain,-3.7001,40.4333,[-4.2001 39.9333 -3.2001 40.9333],3.693,2.225,5.647,4.318,3.346,2.03,5.118,3.916,77.0,529.0
2015-02-18,Madrid,Spain,-3.7001,40.4333,[-4.2001 39.9333 -3.2001 40.9333],4.196,2.398,6.193,4.433,3.543,2.122,5.313,4.01,91.0,529.0
2015-02-19,Madrid,Spain,-3.7001,40.4333,[-4.2001 39.9333 -3.2001 40.9333],4.196,2.398,6.193,4.433,3.589,2.228,5.596,4.144,91.0,532.0
2015-02-20,Madrid,Spain,-3.7001,40.4333,[-4.2001 39.9333 -3.2001 40.9333],3.835,2.421,4.973,3.934,3.579,2.244,5.479,4.124,88.0,534.0
2015-02-21,Madrid,Spain,-3.7001,40.4333,[-4.2001 39.9333 -3.2001 40.9333],3.835,2.421,4.973,3.981,3.644,2.302,5.582,4.193,94.0,533.0
2015-02-22,Madrid,Spain,-3.7001,40.4333,[-4.2001 39.9333 -3.2001 40.9333],3.835,2.421,4.973,3.981,3.711,2.346,5.575,4.208,94.0,528.0
2015-02-23,Madrid,Spain,-3.7001,40.4333,[-4.2001 39.9333 -3.2001 40.9333],3.665,1.958,4.892,3.988,3.701,2.28,5.457,4.208,125.0,521.0
2015-02-24,Madrid,Spain,-3.7001,40.4333,[-4.2001 39.9333 -3.2001 40.9333],3.693,1.958,4.973,4.03,3.754,2.279,5.494,4.226,122.0,527.0
2015-02-25,Madrid,Spain,-3.7001,40.4333,[-4.2001 39.9333 -3.2001 40.9333],3.498,1.668,4.449,3.66,3.727,2.155,5.405,4.142,147.0,516.0
2015-02-26,Madrid,Spain,-3.7001,40.4333,[-4.2001 39.9333 -3.2001 40.9333],3.498,1.668,4.449,3.66,3.73,2.139,5.373,4.171,147.0,559.0
2015-02-27,Madrid,Spain,-3.7001,40.4333,[-4.2001 39.9333 -3.2001 40.9333],3.163,1.542,4.231,3.369,3.677,2.088,5.527,4.179,144.0,560.0
2015-02-28,Madrid,Spain,-3.7001,40.4333,[-4.2001 39.9333 -3.2001 40.9333],3.191,1.581,4.449,3.478,3.588,1.985,5.289,4.001,169.0,562.0
2015-03-01,Madrid,Spain,-3.7001,40.4333,[-4.2001 39.9333 -3.2001 40.9333],3.191,1.581,4.449,3.5,3.659,1.999,5.522,4.116,150.0,566.0
2015-03-02,Madrid,Spain,-3.7001,40.4333,[-4.2001 39.9333 -3.2001 40.9333],3.338,1.668,4.87,3.669,3.685,1.945,5.568,4.08,173.0,559.0
2015-03-03,Madrid,Spain,-3.7001,40.4333,[-4.2001 39.9333 -3.2001 40.9333],3.253,1.668,4.87,3.673,3.496,1.865,5.529,3.967,169.0,554.0
2015-03-04,Madrid,Spain,-3.7001,40.4333,[-4.2001 39.9333 -3.2001 40.9333],3.338,1.958,5.118,3.838,3.344,1.785,5.208,3.786,203.0,553.0
2015-03-05,Madrid,Spain,-3.7001,40.4333,[-4.2001 39.9333 -3.2001 40.9333],3.163,1.871,4.937,3.766,3.185,1.642,4.974,3.626,187.0,557.0
2015-03-06,Madrid,Spain,-3.7001,40.4333,[-4.2001 39.9333 -3.2001 40.9333],3.163,1.958,4.607,3.694,3.172,1.661,4.658,3.508,216.0,556.0
2015-03-07,Madrid,Spain,-3.7001,40.4333,[-4.2001 39.9333 -3.2001 40.9333],3.142,1.958,5.116,3.772,3.064,1.686,4.571,3.423,224.0,561.0
2015-03-08,Madrid,Spain,-3.7001,40.4333,[-4.2001 39.9333 -3.2001 40.9333],3.101,1.958,5.043,3.754,3.168,1.722,4.737,3.529,218.0,567.0
2015-03-09,Madrid,Spain,-3.7001,40.4333,[-4.2001 39.9333 -3.2001 40.9333],3.226,1.958,5.118,3.844,3.213,1.728,4.819,3.57,243.0,569.0
2015-03-10,Madrid,Spain,-3.7001,40.4333,[-4.2001 39.9333 -3.2001 40.9333],3.154,1.976,5.248,3.811,3.004,1.632,4.671,3.43,212.0,567.0
2015-03-11,Madrid,Spain,-3.7001,40.4333,[-4.2001 39.9333 -3.2001 40.9333],3.154,1.976,5.248,3.811,3.046,1.643,4.689,3.428,212.0,561.0
2015-03-12,Madrid,Spain,-3.7001,40.4333,[-4.2001 39.9333 -3.2001 40.9333],3.253,2.101,5.534,4.134,3.099,1.688,4.73,3.567,187.0,572.0
2015-03-13,Madrid,Spain,-3.7001,40.4333,[-4.2001 39.9333 -3.2001 40.9333],3.253,2.101,5.534,4.134,3.078,1.692,4.784,3.548,187.0,565.0
2015-03-14,Madrid,Spain,-3.7001,40.4333,[-4.2001 39.9333 -3.2001 40.9333],3.608,2.34,5.586,4.367,3.097,1.67,4.701,3.5,162.0,570.0
2015-03-15,Madrid,Spain,-3.7001,40.4333,[-4.2001 39.9333 -3.2001 40.9333],3.468,2.277,5.586,4.291,3.201,1.709,4.914,3.647,134.0,533.0
2015-03-16,Madrid,Spain,-3.7001,40.4333,[-4.2001 39.9333 -3.2001 40.9333],3.468,2.34,5.586,4.345,3.174,1.674,4.841,3.631,130.0,534.0
2015-03-17,Madrid,Spain,-3.7001,40.4333,[-4.2001 39.9333 -3.2001 40.9333],3.232,2.277,5.539,4.124,2.941,1.658,4.672,3.424,107.0,540.0
2015-03-18,Madrid,Spain,-3.7001,40.4333,[-4.2001 39.9333 -3.2001 40.9333],3.232,2.277,5.539,4.124,3.014,1.748,4.773,3.491,107.0,531.0
2015-03-19,Madrid,Spain,-3.7001,40.4333,[-4.2001 39.9333 -3.2001 40.9333],3.032,2.037,4.58,3.747,2.9,1.75,4.376,3.346,73.0,526.0
2015-03-20,Madrid,Spain,-3.7001,40.4333,[-4.2001 39.9333 -3.2001 40.9333],3.067,2.279,3.624,3.398,2.927,1.839,4.267,3.383,96.0,520.0
2015-03-21,Madrid,Spain,-3.7001,40.4333,[-4.2001 39.9333 -3.2001 40.9333],3.24,2.174,3.592,3.507,2.86,1.736,4.267,3.389,67.0,524.0
2015-03-22,Madrid,Spain,-3.7001,40.4333,[-4.2001 39.9333 -3.2001 40.9333],2.916,2.017,3.476,3.058,2.848,1.756,4.288,3.379,77.0,524.0
2015-03-23,Madrid,Spain,-3.7001,40.4333,[-4.2001 39.9333 -3.2001 40.9333],2.916,2.017,3.592,3.193,2.722,1.73,4.113,3.257,99.0,526.0
2015-03-24,Madrid,Spain,-3.7001,40.4333,[-4.2001 39.9333 -3.2001 40.9333],3.052,2.018,3.581,3.036,2.677,1.707,3.981,3.166,85.0,535.0
2015-03-25,Madrid,Spain,-3.7001,40.4333,[-4.2001 39.9333 -3.2001 40.9333],3.049,2.017,3.592,3.043,2.657,1.705,3.984,3.141,109.0,534.0
2015-03-26,Madrid,Spain,-3.7001,40.4333,[-4.2001 39.9333 -3.2001 40.9333],3.049,2.017,3.592,3.043,2.598,1.719,3.901,3.146,109.0,535.0
2015-03-27,Madrid,Spain,-3.7001,40.4333,[-4.2001 39.9333 -3.2001 40.9333],2.892,1.761,3.581,2.925,2.564,1.613,3.832,3.026,124.0,528.0
2015-03-28,Madrid,Spain,-3.7001,40.4333,[-4.2001 39.9333 -3.2001 40.9333],2.892,1.761,3.581,2.925,2.588,1.633,3.852,3.062,124.0,535.0
2015-03-29,Madrid,Spain,-3.7001,40.4333,[-4.2001 39.9333 -3.2001 40.9333],2.59,1.515,3.418,2.634,2.513,1.591,3.724,2.988,153.0,532.0
2015-03-30,Madrid,Spain,-3.7001,40.4333,[-4.2001 39.9333 -3.2001 40.9333],2.59,1.515,3.418,2.634,2.381,1.504,3.548,2.795,153.0,575.0
2015-03-31,Madrid,Spain,-3.7001,40.4333,[-4.2001 39.9333 -3.2001 40.9333],2.363,1.509,3.278,2.502,2.328,1.503,3.504,2.752,180.0,579.0
2015-04-01,Madrid,Spain,-3.7001,40.4333,[-4.2001 39.9333 -3.2001 40.9333],2.358,1.47,3.278,2.453,2.449,1.517,3.566,2.841,202.0,579.0
2015-04-02,Madrid,Spain,-3.7001,40.4333,[-4.2001 39.9333 -3.2001 40.9333],2.358,1.47,3.278,2.453,2.377,1.49,3.513,2.802,202.0,582.0
2015-04-03,Madrid,Spain,-3.7001,40.4333,[-4.2001 39.9333 -3.2001 40.9333],2.358,1.47,3.278,2.452,2.376,1.507,3.664,2.832,203.0,572.0
2015-04-04,Madrid,Spain,-3.7001,40.4333,[-4.2001 39.9333 -3.2001 40.9333],2.185,1.312,3.233,2.381,2.358,1.494,3.648,2.795,180.0,574.0
2015-04-05,Madrid,Spain,-3.7001,40.4333,[-4.2001 39.9333 -3.2001 40.9333],2.182,1.22,2.976,2.324,2.419,1.499,3.658,2.873,194.0,566.0
2015-04-06,Madrid,Spain,-3.7001,40.4333,[-4.2001 39.9333 -3.2001 40.9333],2.177,1.284,2.911,2.331,2.375,1.449,3.59,2.835,165.0,568.0
2015-04-07,Madrid,Spain,-3.7001,40.4333,[-4.2001 39.9333 -3.2001 40.9333],2.177,1.201,2.911,2.214,2.423,1.344,3.536,2.706,144.0,568.0
2015-04-08,Madrid,Spain,-3.7001,40.4333,[-4.2001 39.9333 -3.2001 40.9333],1.854,1.196,2.63,2.05,2.333,1.381,3.507,2.692,146.0,567.0
2015-04-09,Madrid,Spain,-3.7001,40.4333,[-4.2001 39.9333 -3.2001 40.9333],1.761,1.196,2.59,1.943,2.277,1.368,3.646,2.761,122.0,573.0
2015-04-10,Madrid,Spain,-3.7001,40.4333,[-4.2001 39.9333 -3.2001 40.9333],1.761,1.196,2.59,1.972,2.301,1.427,3.704,2.815,138.0,567.0
2015-04-11,Madrid,Spain,-3.7001,40.4333,[-4.2001 39.9333 -3.2001 40.9333],1.65,1.067,2.51,1.861,2.193,1.367,3.827,2.804,123.0,567.0
2015-04-12,Madrid,Spain,-3.7001,40.4333,[-4.2001 39.9333 -3.2001 40.9333],1.65,1.091,2.51,1.872,2.202,1.388,3.675,2.724,146.0,559.0
2015-04-13,Madrid,Spain,-3.7001,40.4333,[-4.2001 39.9333 -3.2001 40.9333],1.692,1.145,2.379,1.976,2.377,1.445,3.691,2.796,117.0,563.0
2015-04-14,Madrid,Spain,-3.7001,40.4333,[-4.2001 39.9333 -3.2001 40.9333],1.683,1.091,2.379,1.823,2.574,1.501,3.782,2.818,130.0,556.0
2015-04-15,Madrid,Spain,-3.7001,40.4333,[-4.2001 39.9333 -3.2001 40.9333],1.565,0.901,2.418,1.843,2.486,1.501,3.796,2.862,103.0,558.0
2015-04-16,Madrid,Spain,-3.7001,40.4333,[-4.2001 39.9333 -3.2001 40.9333],1.646,1.128,2.418,1.895,2.459,1.436,3.638,2.746,81.0,522.0
2015-04-17,Madrid,Spain,-3.7001,40.4333,[-4.2001 39.9333 -3.2001 40.9333],1.646,1.136,2.531,1.911,2.452,1.465,3.721,2.816,83.0,554.0
2015-04-18,Madrid,Spain,-3.7001,40.4333,[-4.2001 39.9333 -3.2001 40.9333],1.646,1.136,2.531,1.912,2.429,1.443,3.881,2.818,82.0,561.0
2015-04-19,Madrid,Spain,-3.7001,40.4333,[-4.2001 39.9333 -3.2001 40.9333],1.569,0.943,2.418,1.88,2.489,1.454,4.031,2.917,85.0,551.0
2015-04-20,Madrid,Spain,-3.7001,40.4333,[-4.2001 39.9333 -3.2001 40.9333],1.677,0.694,2.663,1.932,2.451,1.431,3.919,2.831,71.0,593.0
2015-04-21,Madrid,Spain,-3.7001,40.4333,[-4.2001 39.9333 -3.2001 40.9333],1.921,0.901,2.661,1.994,2.463,1.408,3.89,2.812,77.0,617.0
2015-04-22,Madrid,Spain,-3.7001,40.4333,[-4.2001 39.9333 -3.2001 40.9333],2.032,0.901,2.663,2.01,2.476,1.461,3.952,2.902,76.0,622.0
2015-04-23,Madrid,Spain,-3.7001,40.4333,[-4.2001 39.9333 -3.2001 40.9333],2.043,1.221,3.146,2.731,2.472,1.573,4.025,3.015,96.0,620.0
2015-04-24,Madrid,Spain,-3.7001,40.4333,[-4.2001 39.9333 -3.2001 40.9333],2.043,1.165,3.215,2.697,2.501,1.509,3.757,2.891,113.0,621.0
2015-04-25,Madrid,Spain,-3.7001,40.4333,[-4.2001 39.9333 -3.2001 40.9333],1.825,1.221,2.838,2.584,2.376,1.403,3.579,2.753,108.0,626.0
2015-04-26,Madrid,Spain,-3.7001,40.4333,[-4.2001 39.9333 -3.2001 40.9333],1.825,1.221,2.838,2.584,2.431,1.444,3.659,2.776,108.0,625.0
2015-04-27,Madrid,Spain,-3.7001,40.4333,[-4.2001 39.9333 -3.2001 40.9333],1.986,1.147,3.54,2.724,2.457,1.413,3.742,2.817,92.0,621.0
2015-04-28,Madrid,Spain,-3.7001,40.4333,[-4.2001 39.9333 -3.2001 40.9333],2.089,1.183,3.54,2.73,2.431,1.403,3.781,2.828,117.0,614.0
2015-04-29,Madrid,Spain,-3.7001,40.4333,[-4.2001 39.9333 -3.2001 40.9333],2.205,1.24,4.248,3.017,2.431,1.398,3.847,2.823,104.0,620.0
2015-04-30,Madrid,Spain,-3.7001,40.4333,[-4.2001 39.9333 -3.2001 40.9333],2.211,1.258,3.835,2.966,2.456,1.433,3.778,2.826,130.0,614.0
2015-05-01,Madrid,Spain,-3.7001,40.4333,[-4.2001 39.9333 -3.2001 40.9333],2.211,1.258,3.835,2.961,2.474,1.454,3.786,2.868,132.0,658.0
2015-05-02,Madrid,Spain,-3.7001,40.4333,[-4.2001 39.9333 -3.2001 40.9333],2.205,1.24,3.698,2.834,2.466,1.398,3.714,2.808,154.0,631.0
2015-05-03,Madrid,Spain,-3.7001,40.4333,[-4.2001 39.9333 -3.2001 40.9333],2.137,1.23,3.54,2.733,2.443,1.402,3.668,2.767,182.0,633.0
2015-05-04,Madrid,Spain,-3.7001,40.4333,[-4.2001 39.9333 -3.2001 40.9333],2.115,1.23,3.54,2.727,2.25,1.355,3.493,2.626,206.0,642.0
2015-05-05,Madrid,Spain,-3.7001,40.4333,[-4.2001 39.9333 -3.2001 40.9333],2.115,1.23,3.54,2.757,2.212,1.354,3.405,2.591,230.0,594.0
2015-05-06,Madrid,Spain,-3.7001,40.4333,[-4.2001 39.9333 -3.2001 40.9333],2.115,1.226,3.835,2.778,2.276,1.413,3.635,2.682,224.0,564.0
2015-05-07,Madrid,Spain,-3.7001,40.4333,[-4.2001 39.9333 -3.2001 40.9333],2.099,1.23,3.523,2.705,2.272,1.441,3.598,2.67,253.0,565.0
2015-05-08,Madrid,Spain,-3.7001,40.4333,[-4.2001 39.9333 -3.2001 40.9333],2.056,1.217,3.062,2.39,2.306,1.478,3.507,2.609,220.0,573.0
2015-05-09,Madrid,Spain,-3.7001,40.4333,[-4.2001 39.9333 -3.2001 40.9333],1.959,1.183,2.826,2.26,2.29,1.487,3.486,2.623,237.0,583.0
2015-05-10,Madrid,Spain,-3.7001,40.4333,[-4.2001 39.9333 -3.2001 40.9333],2.03,1.183,2.829,2.262,2.325,1.49,3.471,2.651,257.0,628.0
2015-05-11,Madrid,Spain,-3.7001,40.4333,[-4.2001 39.9333 -3.2001 40.9333],2.137,1.208,3.12,2.406,2.31,1.462,3.478,2.654,286.0,656.0
2015-05-12,Madrid,Spain,-3.7001,40.4333,[-4.2001 39.9333 -3.2001 40.9333],2.143,1.21,3.167,2.431,2.314,1.476,3.516,2.696,292.0,658.0
2015-05-13,Madrid,Spain,-3.7001,40.4333,[-4.2001 39.9333 -3.2001 40.9333],2.075,1.208,3.167,2.417,2.301,1.466,3.545,2.702,284.0,654.0
2015-05-14,Madrid,Spain,-3.7001,40.4333,[-4.2001 39.9333 -3.2001 40.9333],2.031,1.217,2.933,2.352,2.346,1.467,3.55,2.74,315.0,649.0
2015-05-15,Madrid,Spain,-3.7001,40.4333,[-4.2001 39.9333 -3.2001 40.9333],1.991,1.208,2.827,2.278,2.353,1.452,3.557,2.752,289.0,656.0
2015-05-16,Madrid,Spain,-3.7001,40.4333,[-4.2001 39.9333 -3.2001 40.9333],2.03,1.24,2.828,2.27,2.307,1.461,3.526,2.716,313.0,644.0
2015-05-17,Madrid,Spain,-3.7001,40.4333,[-4.2001 39.9333 -3.2001 40.9333],2.03,1.256,2.828,2.261,2.349,1.518,3.609,2.745,290.0,648.0
2015-05-18,Madrid,Spain,-3.7001,40.4333,[-4.2001 39.9333 -3.2001 40.9333],2.048,1.309,2.828,2.308,2.4,1.571,3.556,2.785,262.0,610.0
2015-05-19,Madrid,Spain,-3.7001,40.4333,[-4.2001 39.9333 -3.2001 40.9333],2.093,1.273,2.829,2.322,2.497,1.629,3.623,2.847,264.0,609.0
2015-05-20,Madrid,Spain,-3.7001,40.4333,[-4.2001 39.9333 -3.2001 40.9333],2.086,1.256,2.924,2.268,2.543,1.667,3.721,2.861,266.0,619.0
2015-05-21,Madrid,Spain,-3.7001,40.4333,[-4.2001 39.9333 -3.2001 40.9333],2.093,1.273,2.977,2.31,2.522,1.601,3.656,2.825,289.0,641.0
2015-05-22,Madrid,Spain,-3.7001,40.4333,[-4.2001 39.9333 -3.2001 40.9333],2.143,1.252,2.979,2.324,2.506,1.579,3.609,2.79,260.0,674.0
2015-05-23,Madrid,Spain,-3.7001,40.4333,[-4.2001 39.9333 -3.2001 40.9333],2.232,1.361,3.049,2.342,2.475,1.533,3.557,2.747,281.0,695.0
2015-05-24,Madrid,Spain,-3.7001,40.4333,[-4.2001 39.9333 -3.2001 40.9333],2.329,1.386,3.12,2.479,2.482,1.521,3.548,2.761,247.0,690.0
2015-05-25,Madrid,Spain,-3.7001,40.4333,[-4.2001 39.9333 -3.2001 40.9333],2.545,1.589,3.312,2.809,2.51,1.591,3.532,2.813,244.0,648.0
2015-05-26,Madrid,Spain,-3.7001,40.4333,[-4.2001 39.9333 -3.2001 40.9333],2.525,1.514,3.232,2.764,2.499,1.606,3.523,2.802,244.0,626.0
2015-05-27,Madrid,Spain,-3.7001,40.4333,[-4.2001 39.9333 -3.2001 40.9333],2.537,1.451,3.423,2.763,2.466,1.537,3.49,2.73,255.0,628.0
2015-05-28,Madrid,Spain,-3.7001,40.4333,[-4.2001 39.9333 -3.2001 40.9333],2.537,1.455,3.258,2.729,2.48,1.55,3.424,2.722,264.0,628.0
2015-05-29,Madrid,Spain,-3.7001,40.4333,[-4.2001 39.9333 -3.2001 40.9333],2.596,1.573,3.722,2.899,2.484,1.569,3.45,2.71,251.0,621.0
2015-05-30,Madrid,Spain,-3.7001,40.4333,[-4.2001 39.9333 -3.2001 40.9333],2.525,1.589,3.539,2.8,2.418,1.62,3.396,2.654,276.0,614.0
2015-05-31,Madrid,Spain,-3.7001,40.4333,[-4.2001 39.9333 -3.2001 40.9333],2.562,1.596,3.782,2.919,2.428,1.612,3.43,2.678,250.0,624.0
2015-06-01,Madrid,Spain,-3.7001,40.4333,[-4.2001 39.9333 -3.2001 40.9333],2.629,1.746,4.001,3.035,2.428,1.613,3.571,2.695,274.0,615.0
2015-06-02,Madrid,Spain,-3.7001,40.4333,[-4.2001 39.9333 -3.2001 40.9333],2.629,1.733,4.001,3.029,2.432,1.6,3.513,2.692,276.0,658.0
2015-06-03,Madrid,Spain,-3.7001,40.4333,[-4.2001 39.9333 -3.2001 40.9333],2.682,1.748,4.016,3.091,2.437,1.573,3.525,2.697,249.0,660.0
2015-06-04,Madrid,Spain,-3.7001,40.4333,[-4.2001 39.9333 -3.2001 40.9333],2.683,1.79,4.155,3.146,2.289,1.573,3.413,2.603,236.0,659.0
2015-06-05,Madrid,Spain,-3.7001,40.4333,[-4.2001 39.9333 -3.2001 40.9333],2.683,1.841,4.155,3.122,2.341,1.558,3.398,2.616,222.0,638.0
2015-06-06,Madrid,Spain,-3.7001,40.4333,[-4.2001 39.9333 -3.2001 40.9333],2.682,1.79,4.155,3.113,2.422,1.622,3.43,2.667,225.0,589.0
2015-06-07,Madrid,Spain,-3.7001,40.4333,[-4.2001 39.9333 -3.2001 40.9333],2.682,1.808,4.211,3.188,2.435,1.629,3.465,2.674,204.0,558.0
2015-06-08,Madrid,Spain,-3.7001,40.4333,[-4.2001 39.9333 -3.2001 40.9333],2.623,1.775,4.155,3.148,2.47,1.624,3.497,2.741,209.0,556.0
2015-06-09,Madrid,Spain,-3.7001,40.4333,[-4.2001 39.9333 -3.2001 40.9333],2.374,1.684,3.993,2.885,2.381,1.54,3.426,2.654,181.0,564.0
2015-06-10,Madrid,Spain,-3.7001,40.4333,[-4.2001 39.9333 -3.2001 40.9333],2.348,1.696,3.955,2.807,2.354,1.578,3.458,2.653,187.0,574.0
2015-06-11,Madrid,Spain,-3.7001,40.4333,[-4.2001 39.9333 -3.2001 40.9333],2.308,1.702,3.803,2.846,2.357,1.605,3.422,2.688,195.0,620.0
2015-06-12,Madrid,Spain,-3.7001,40.4333,[-4.2001 39.9333 -3.2001 40.9333],2.33,1.724,3.803,2.843,2.369,1.609,3.426,2.688,202.0,654.0
2015-06-13,Madrid,Spain,-3.7001,40.4333,[-4.2001 39.9333 -3.2001 40.9333],2.33,1.719,3.803,2.831,2.345,1.601,3.387,2.65,211.0,655.0
2015-06-14,Madrid,Spain,-3.7001,40.4333,[-4.2001 39.9333 -3.2001 40.9333],2.458,1.719,4.007,2.9,2.407,1.607,3.447,2.701,203.0,653.0
2015-06-15,Madrid,Spain,-3.7001,40.4333,[-4.2001 39.9333 -3.2001 40.9333],2.375,1.748,3.803,2.793,2.374,1.613,3.373,2.652,226.0,646.0
2015-06-16,Madrid,Spain,-3.7001,40.4333,[-4.2001 39.9333 -3.2001 40.9333],2.256,1.685,3.411,2.606,2.324,1.573,3.209,2.572,201.0,655.0
2015-06-17,Madrid,Spain,-3.7001,40.4333,[-4.2001 39.9333 -3.2001 40.9333],2.414,1.719,3.648,2.82,2.332,1.575,3.228,2.585,216.0,647.0
2015-06-18,Madrid,Spain,-3.7001,40.4333,[-4.2001 39.9333 -3.2001 40.9333],2.375,1.696,3.432,2.757,2.301,1.571,3.206,2.577,217.0,650.0
2015-06-19,Madrid,Spain,-3.7001,40.4333,[-4.2001 39.9333 -3.2001 40.9333],2.33,1.71,3.43,2.746,2.293,1.604,3.222,2.597,204.0,612.0
2015-06-20,Madrid,Spain,-3.7001,40.4333,[-4.2001 39.9333 -3.2001 40.9333],2.33,1.696,3.432,2.749,2.354,1.674,3.334,2.611,224.0,613.0
2015-06-21,Madrid,Spain,-3.7001,40.4333,[-4.2001 39.9333 -3.2001 40.9333],2.33,1.696,3.43,2.722,2.28,1.615,3.279,2.556,248.0,620.0
2015-06-22,Madrid,Spain,-3.7001,40.4333,[-4.2001 39.9333 -3.2001 40.9333],2.375,1.719,3.432,2.778,2.326,1.703,3.244,2.609,273.0,644.0
2015-06-23,Madrid,Spain,-3.7001,40.4333,[-4.2001 39.9333 -3.2001 40.9333],2.375,1.759,3.432,2.797,2.284,1.674,3.216,2.55,268.0,678.0
2015-06-24,Madrid,Spain,-3.7001,40.4333,[-4.2001 39.9333 -3.2001 40.9333],2.234,1.484,3.219,2.58,2.273,1.637,3.2,2.558,302.0,697.0
2015-06-25,Madrid,Spain,-3.7001,40.4333,[-4.2001 39.9333 -3.2001 40.9333],2.234,1.403,3.209,2.563,2.25,1.56,3.18,2.509,267.0,691.0
2015-06-26,Madrid,Spain,-3.7001,40.4333,[-4.2001 39.9333 -3.2001 40.9333],2.234,1.403,3.016,2.491,2.233,1.538,3.13,2.488,268.0,649.0